Regional Weather Roundup
Issued by NWS

Home | Current Version | Previous Version | Text Only | Print | Product List | Glossary On
Versions: 1 2 3 4 5 6 7 8 9 10 11 12 13 14 15 16 17 18 19 20 21 22 23 24 25 26 27 28 29 30 31 32 33 34 35 36 37 38 39 40 41 42 43 44 45 46 47 48 49 50
000
ASUS46 KSEW 280510
RWRWA

WASHINGTON REGIONAL WEATHER ROUNDUP
NATIONAL WEATHER SERVICE SEATTLE WA
1000 PM PDT THU AUG 27 2015

NOTE:"FAIR" INDICATES FEW OR NO CLOUDS BELOW 12,000 FEET WITH NO
SIGNIFICANT WEATHER AND/OR OBSTRUCTIONS TO VISIBILITY.

WAZ505-507>509-280600-
SEATTLE, TACOMA, EVERETT, AND VICINITY

CITY           SKY/WX    TMP DP  RH WIND       PRES   REMARKS
EVERETT        CLEAR     67  50  54 CALM      29.98S
BOEING FIELD   PTCLDY    76  49  38 CALM      29.96R
RENTON         MOCLDY    73  52  47 CALM      29.96R
SEATAC AIRPORT MOCLDY    73  50  44 S6        29.98R
JBLM-MCCHORD   MOCLDY    75  50  41 W7        29.98R
PUYALLUP       FAIR      68  52  56 CALM      29.99S
BREMERTON      PTCLDY    72  45  37 S3        30.00S
JBLM-FT LEWIS  MOCLDY    74  49  41 W6        29.98R
TACOMA NARROWS PTCLDY    74  43  32 W5        29.97S
$$

WAZ001-503-506-510-514-515-280600-
NORTH INTERIOR

CITY           SKY/WX    TMP DP  RH WIND       PRES   REMARKS
BELLINGHAM     MOCLDY    64  52  64 CALM      29.94S
FRIDAY HARBOR  MOCLDY    56  52  86 CALM      29.96R
EASTSOUND      MOCLDY    66  50  55 S3        29.92S
PORT ANGELES   MOCLDY    63  51  65 W7        29.97R
PORT TOWNSEND  MOCLDY    57  54  88 CALM      29.96R
NAS WHIDBEY    MOCLDY    60  55  83 CALM      30.00R
ARLINGTON      PTCLDY    64  48  55 CALM      29.95R
BURLINGTON     CLEAR     61  52  72 CALM      29.95S
$$

WAZ020-022-039-040-504-511-512-280600-
SOUTHWEST INTERIOR

CITY           SKY/WX    TMP DP  RH WIND       PRES   REMARKS
SHELTON        MOCLDY    71  46  40 SW14      29.97R
OLYMPIA        CLOUDY    71  51  49 SE5       29.98R
CHEHALIS       CLOUDY    75  50  41 CALM      29.99R
KELSO          NOT AVBL
VANCOUVER      CLOUDY    79  50  36 NW5       29.97R
SCAPPOOSE, OR  CLOUDY    77  45  32 N7        29.96R
PORTLAND, OR   CLOUDY    79  53  40 W7        29.97R
$$

WAZ021-516-517-280600-
WASHINGTON COAST

CITY           SKY/WX    TMP DP  RH WIND       PRES   REMARKS
FORKS          RAIN      58  57  97 SW5       30.04R FOG
HOQUIAM        LGT RAIN  61  58  90 SW5       30.03S
ASTORIA, OR    CLOUDY    62  56  80 W5        30.02R
$$

WAZ019-023-024-040-518-519-280600-
CASCADE MOUNTAINS AND COLUMBIA GORGE

CITY           SKY/WX    TMP DP  RH WIND       PRES   REMARKS
TROUTDALE, OR  CLOUDY    76  54  46 CALM      29.96R
THE DALLES, OR MOCLDY    81  42  25 CALM      29.92R
$$

WAZ026-027-041>044-520-521-280600-
EAST SLOPES

CITY           SKY/WX    TMP DP  RH WIND       PRES   REMARKS
OMAK           CLOUDY    72  38  29 CALM      29.90R HAZE
WENATCHEE      PTCLDY    81  39  22 W14       29.92S
ELLENSBURG     MOCLDY    77  43  29 NW15      29.97S
YAKIMA         MOCLDY    76  47  35 W7        29.93S
$$

WAZ028-034-035-280600-
COLUMBIA BASIN

CITY           SKY/WX    TMP DP  RH WIND       PRES   REMARKS
EPHRATA        MOCLDY    78  39  24 N6        29.91S
MOSES LAKE     MOCLDY    78  45  30 W5        29.92R
PASCO          CLEAR     73  53  49 E3        29.89R
HERMISTON, OR  PTCLDY    72  53  51 E7        29.91R
$$

WAZ036>038-280600-
NORTHEAST WASHINGTON

CITY           SKY/WX    TMP DP  RH WIND       PRES   REMARKS
SPOKANE GEIGER MOCLDY    78  39  24 SW12      29.99S
SPOKANE FELTS  CLEAR     68  40  35 CALM      29.98S
FAIRCHILD AFB  PTCLDY    72  39  30 S8        29.99F
COEURDALENE,ID CLEAR     70  43  37 S9        29.99S
DEER PARK      PTCLDY    64  39  39 E3        29.98S
$$

WAZ029>033-280600-
SOUTHEAST WASHINGTON

CITY           SKY/WX    TMP DP  RH WIND       PRES   REMARKS
PULLMAN        CLEAR     61  37  41 CALM      30.05R
LEWISTON, ID   CLEAR     76  39  26 S7        29.97R
WALLA WALLA    PTCLDY    79  41  25 E7        29.93F
PENDLETON, OR  PTCLDY    73  39  29 SE3       29.96S
$$



USA.gov is the U.S. government's official web portal to all federal, state and local government web resources and services.